GFSCGP_850_dewp_276.txt.gz
Dewpoint
-8 -6 -6 -11 -9 -11 -9 -9 -8 -7 -7 -9 -8 -8 -9 -14 -16 -16 -19 -19 -17 -15 -12 -9 -7 -6 -9 -10 -9 -8 -7 -7 -8 -8 -10 -12 -12 -11 -10 -9 -8 -7 -7 -5
-7 -6 -10 -13 -12 -13 -9 -8 -10 -9 -7 -9 -7 -7 -8 -13 -15 -15 -17 -19 -18 -16 -13 -9 -7 -6 -11 -10 -9 -8 -7 -7 -7 -8 -9 -10 -10 -10 -9 -9 -8 -8 -8 -4
-6 -8 -11 -11 -12 -13 -12 -11 -13 -13 -10 -8 -8 -8 -11 -14 -14 -15 -15 -17 -18 -16 -13 -9 -7 -8 -11 -9 -9 -7 -7 -7 -7 -8 -10 -12 -11 -10 -10 -9 -8 -8 -7 -4
-10 -13 -12 -11 -11 -14 -14 -12 -10 -9 -8 -7 -10 -7 -9 -12 -13 -17 -17 -18 -18 -16 -13 -9 -7 -9 -9 -9 -9 -7 -7 -8 -8 -9 -11 -11 -9 -9 -8 -7 -7 -9 -7 -6
-9 -10 -12 -11 -11 -15 -14 -11 -8 -8 -7 -6 -7 -6 -8 -12 -12 -13 -17 -17 -17 -16 -12 -10 -7 -9 -8 -9 -8 -7 -7 -8 -8 -10 -11 -11 -9 -8 -8 -8 -8 -9 -8 -7
-10 -12 -15 -14 -15 -15 -12 -8 -6 -4 -5 -6 -6 -6 -8 -9 -11 -13 -15 -17 -17 -16 -12 -9 -7 -9 -8 -9 -8 -7 -8 -9 -10 -10 -11 -10 -8 -8 -8 -8 -7 -8 -9 -7
-8 -9 -12 -16 -13 -13 -12 -10 -7 -11 -8 -8 -6 -7 -7 -11 -13 -14 -15 -17 -17 -16 -12 -9 -7 -9 -8 -9 -9 -8 -9 -10 -11 -11 -11 -10 -8 -7 -7 -8 -7 -7 -9 -7
-5 -7 -10 -16 -15 -14 -12 -11 -8 -12 -9 -9 -9 -9 -11 -14 -16 -17 -16 -17 -18 -15 -12 -9 -7 -9 -8 -9 -9 -8 -9 -10 -11 -12 -11 -10 -8 -7 -7 -7 -7 -6 -8 -6
-5 -5 -13 -16 -17 -14 -12 -10 -12 -9 -6 -5 -7 -9 -11 -16 -17 -17 -18 -18 -17 -15 -13 -11 -7 -10 -8 -9 -9 -8 -9 -11 -12 -13 -12 -11 -10 -8 -8 -8 -7 -7 -8 -7
-7 -8 -10 -12 -14 -15 -12 -12 -11 -7 -7 -9 -9 -10 -10 -12 -14 -16 -16 -17 -17 -16 -13 -11 -7 -10 -9 -11 -9 -9 -10 -11 -13 -14 -13 -12 -11 -9 -8 -8 -8 -8 -8 -7
-9 -9 -9 -10 -10 -11 -13 -12 -10 -9 -7 -4 -6 -8 -12 -13 -13 -15 -17 -17 -17 -17 -16 -13 -8 -9 -10 -11 -9 -9 -10 -11 -12 -13 -13 -12 -11 -10 -9 -8 -8 -8 -8 -7
-10 -9 -8 -8 -12 -12 -12 -12 -10 -2 -7 -5 -3 -6 -12 -15 -15 -15 -16 -17 -18 -17 -17 -14 -8 -9 -11 -12 -10 -9 -11 -12 -13 -13 -13 -11 -10 -10 -9 -8 -8 -8 -8 -8
-9 -8 -9 -11 -9 -9 -10 -11 -8 -6 -5 -6 -2 -6 -15 -15 -15 -14 -16 -17 -18 -18 -17 -13 -9 -9 -11 -12 -10 -9 -11 -12 -14 -13 -12 -12 -11 -10 -9 -9 -8 -8 -8 -8
-9 -8 -9 -6 -11 -7 -8 -9 -7 -8 -4 -4 -5 -8 -10 -14 -14 -15 -16 -17 -18 -19 -18 -15 -10 -9 -12 -13 -11 -9 -12 -13 -14 -13 -13 -13 -13 -12 -11 -10 -10 -9 -9 -9
-8 -7 -6 -6 -6 -6 -6 -8 -7 -7 -9 -6 -8 -7 -10 -11 -14 -15 -16 -17 -17 -18 -17 -16 -12 -10 -13 -14 -11 -9 -12 -13 -15 -14 -13 -13 -13 -12 -12 -12 -12 -11 -10 -10
-7 -8 -6 -7 -8 -5 -5 -5 -7 -8 -9 -8 -8 -8 -10 -9 -10 -14 -16 -17 -16 -16 -19 -19 -15 -10 -13 -15 -11 -9 -11 -13 -14 -15 -14 -14 -12 -12 -13 -16 -15 -14 -14 -13
-7 -6 -5 -7 -4 -4 -5 -6 -5 -8 -9 -9 -8 -10 -14 -14 -13 -13 -14 -16 -16 -15 -19 -21 -18 -12 -14 -16 -12 -10 -10 -12 -13 -14 -14 -13 -12 -14 -16 -17 -16 -15 -15 -15
-6 -6 -3 -2 -6 -3 -7 -9 -8 -7 -8 -10 -10 -10 -12 -13 -14 -14 -14 -15 -16 -16 -18 -23 -20 -13 -13 -16 -12 -10 -10 -12 -13 -12 -13 -11 -11 -16 -17 -17 -17 -17 -17 -17
-6 -3 -2 -1 -5 -6 -9 -10 -8 -7 -8 -8 -10 -10 -11 -14 -15 -15 -15 -16 -19 -21 -24 -26 -21 -14 -12 -16 -14 -11 -10 -12 -14 -12 -11 -11 -11 -15 -17 -17 -17 -17 -17 -16
-4 -5 -1 -2 -3 -3 -9 -10 -10 -10 -7 -11 -9 -9 -12 -15 -10 -10 -15 -15 -19 -22 -26 -26 -23 -15 -12 -16 -14 -12 -10 -11 -14 -14 -12 -12 -13 -14 -16 -16 -16 -16 -15 -15
-2 -2 -2 -1 -2 -4 -7 -12 -10 -9 -7 -10 -9 -9 -12 -12 -11 -17 -26 -18 -17 -27 -27 -25 -23 -15 -13 -15 -15 -13 -11 -10 -12 -14 -14 -14 -15 -16 -16 -16 -15 -15 -14 -14
-3 -0 -1 -2 -2 -3 -10 -11 -9 -8 -9 -10 -11 -10 -11 -12 -12 -14 -23 -24 -18 -25 -26 -24 -24 -19 -11 -13 -16 -15 -12 -9 -10 -12 -13 -14 -15 -16 -16 -16 -15 -15 -14 -14
-4 -3 -1 -2 -3 -7 -11 -11 -12 -12 -10 -10 -11 -11 -11 -12 -12 -13 -19 -27 -22 -25 -27 -24 -25 -22 -12 -12 -17 -16 -14 -10 -9 -9 -11 -12 -13 -14 -14 -15 -14 -14 -13 -13
-8 -7 -5 -7 -8 -7 -8 -9 -10 -11 -11 -12 -11 -12 -12 -12 -12 -13 -15 -24 -25 -25 -26 -25 -24 -23 -14 -10 -14 -18 -15 -13 -10 -9 -9 -10 -11 -12 -12 -13 -13 -13 -13 -13
-5 -7 -7 -4 -6 -8 -10 -9 -9 -9 -8 -9 -10 -11 -12 -12 -12 -13 -14 -18 -27 -26 -26 -25 -25 -25 -18 -9 -10 -16 -17 -14 -12 -11 -9 -8 -9 -10 -11 -12 -12 -12 -12 -11
-4 -6 -5 -5 -8 -8 -8 -9 -8 -8 -8 -9 -8 -9 -10 -12 -12 -13 -14 -16 -24 -27 -26 -25 -26 -26 -20 -11 -8 -12 -17 -15 -13 -12 -11 -9 -7 -8 -8 -10 -10 -10 -11 -10

GFSCGP_850_dewp_279.txt.gz
Dewpoint
-8 -5 -5 -9 -9 -11 -9 -8 -8 -7 -7 -9 -8 -8 -8 -13 -15 -16 -19 -19 -18 -16 -15 -13 -10 -7 -9 -12 -10 -10 -8 -9 -9 -10 -14 -15 -13 -10 -10 -10 -9 -10 -8 -4
-6 -5 -10 -12 -12 -12 -9 -8 -9 -9 -7 -8 -7 -7 -8 -10 -14 -15 -17 -18 -18 -17 -15 -13 -10 -7 -11 -11 -11 -9 -8 -9 -9 -10 -13 -13 -11 -10 -9 -9 -9 -10 -8 -6
-5 -8 -11 -11 -12 -12 -12 -10 -12 -13 -10 -8 -8 -8 -9 -13 -14 -15 -15 -16 -18 -17 -16 -14 -11 -7 -11 -11 -11 -8 -8 -9 -10 -11 -14 -13 -11 -10 -10 -9 -8 -10 -8 -7
-9 -13 -11 -11 -11 -13 -14 -12 -11 -9 -7 -6 -9 -6 -8 -11 -13 -15 -15 -15 -16 -17 -16 -15 -11 -8 -12 -11 -10 -8 -8 -10 -10 -12 -14 -13 -10 -10 -9 -9 -8 -9 -9 -8
-9 -10 -11 -11 -11 -15 -14 -10 -8 -7 -6 -5 -7 -7 -8 -11 -10 -12 -15 -16 -16 -17 -16 -15 -11 -9 -11 -11 -10 -8 -9 -11 -12 -14 -15 -13 -11 -9 -9 -9 -8 -9 -9 -7
-10 -12 -15 -14 -14 -15 -10 -7 -5 -5 -5 -7 -6 -6 -9 -9 -10 -12 -13 -15 -16 -17 -17 -14 -11 -9 -11 -10 -10 -9 -9 -11 -13 -14 -14 -13 -11 -10 -10 -9 -9 -8 -9 -7
-8 -10 -12 -16 -12 -13 -12 -9 -5 -9 -6 -8 -6 -7 -7 -10 -11 -13 -13 -14 -16 -17 -17 -14 -11 -9 -11 -10 -10 -9 -10 -12 -14 -15 -14 -13 -12 -11 -10 -9 -9 -9 -9 -7
-5 -8 -10 -16 -15 -13 -12 -10 -5 -12 -8 -8 -9 -7 -9 -13 -14 -15 -16 -14 -16 -17 -18 -14 -11 -9 -11 -10 -10 -9 -10 -12 -14 -16 -14 -13 -12 -11 -10 -9 -9 -8 -8 -7
-5 -5 -13 -16 -17 -13 -11 -10 -12 -8 -6 -5 -7 -9 -11 -15 -17 -17 -16 -15 -17 -18 -17 -15 -11 -9 -11 -10 -11 -9 -10 -13 -15 -16 -14 -13 -12 -10 -10 -9 -8 -8 -8 -8
-7 -7 -10 -13 -14 -14 -12 -12 -9 -7 -4 -8 -9 -9 -8 -11 -12 -15 -16 -17 -18 -18 -17 -15 -12 -9 -13 -12 -12 -9 -11 -13 -15 -15 -14 -12 -11 -10 -10 -9 -8 -8 -8 -9
-9 -9 -9 -10 -9 -10 -12 -12 -9 -8 -7 -3 -7 -7 -11 -11 -11 -14 -16 -18 -19 -18 -18 -17 -14 -10 -13 -13 -12 -10 -12 -14 -15 -15 -13 -12 -11 -10 -9 -9 -8 -8 -8 -8
-10 -9 -8 -8 -12 -12 -13 -13 -9 0 -5 -6 -2 -4 -11 -13 -14 -14 -15 -17 -18 -18 -19 -18 -16 -10 -13 -14 -12 -10 -11 -13 -14 -14 -13 -12 -11 -11 -10 -9 -9 -9 -9 -8
-8 -7 -8 -11 -10 -9 -10 -11 -8 -6 -5 -4 1 -4 -13 -15 -15 -15 -15 -16 -17 -18 -18 -18 -16 -11 -13 -15 -13 -10 -11 -13 -14 -14 -13 -12 -12 -12 -11 -11 -11 -11 -11 -10
-9 -8 -8 -5 -10 -7 -8 -9 -7 -8 -2 -2 -5 -8 -10 -11 -13 -15 -15 -16 -16 -17 -19 -20 -18 -12 -13 -14 -14 -11 -11 -13 -13 -14 -13 -13 -13 -13 -12 -13 -14 -14 -13 -12
-8 -7 -7 -8 -9 -7 -7 -8 -7 -6 -8 -4 -8 -7 -9 -10 -12 -15 -15 -16 -17 -17 -19 -21 -20 -14 -13 -15 -15 -11 -10 -13 -13 -15 -14 -14 -13 -12 -13 -16 -16 -15 -14 -14
-7 -6 -6 -6 -8 -5 -4 -4 -7 -8 -9 -8 -9 -9 -10 -11 -12 -13 -15 -15 -17 -17 -17 -23 -22 -17 -13 -16 -16 -12 -10 -13 -14 -15 -16 -15 -13 -13 -16 -17 -17 -16 -15 -15
-6 -5 -5 -6 -6 -6 -5 -6 -5 -7 -8 -9 -7 -8 -12 -12 -11 -11 -12 -15 -16 -16 -16 -20 -25 -19 -15 -17 -16 -12 -10 -12 -14 -14 -16 -15 -12 -14 -18 -17 -17 -17 -17 -17
-7 -6 -2 -2 -6 -3 -6 -9 -7 -6 -7 -9 -9 -9 -10 -12 -13 -13 -13 -13 -15 -16 -16 -17 -25 -22 -16 -16 -16 -13 -10 -11 -13 -14 -14 -14 -12 -14 -18 -18 -18 -17 -16 -16
-6 -3 -1 1 -4 -5 -8 -9 -7 -7 -8 -7 -8 -9 -11 -13 -14 -14 -14 -14 -16 -19 -19 -18 -25 -22 -16 -16 -17 -14 -11 -10 -12 -14 -13 -12 -12 -13 -16 -17 -17 -17 -16 -15
-5 -4 -0 -1 -1 -3 -7 -10 -10 -10 -6 -13 -8 -8 -11 -14 -8 -7 -13 -13 -14 -18 -19 -20 -22 -24 -17 -16 -17 -15 -12 -10 -11 -13 -13 -12 -12 -13 -15 -16 -16 -16 -15 -14
-2 -1 -1 -1 0 -3 -7 -11 -10 -8 -4 -9 -10 -9 -11 -10 -10 -12 -18 -21 -14 -16 -23 -22 -23 -24 -17 -16 -17 -17 -14 -11 -10 -11 -13 -14 -13 -14 -15 -15 -15 -15 -14 -13
-2 0 0 -1 -1 -2 -10 -10 -8 -7 -11 -9 -10 -10 -10 -11 -12 -12 -13 -21 -22 -17 -24 -25 -26 -25 -19 -14 -16 -19 -16 -13 -10 -10 -12 -13 -13 -13 -14 -15 -14 -14 -14 -13
-3 -2 0 -1 -3 -7 -10 -10 -11 -11 -11 -11 -11 -10 -11 -11 -11 -12 -13 -17 -27 -20 -22 -28 -27 -26 -22 -15 -14 -19 -19 -14 -12 -9 -9 -11 -12 -13 -13 -13 -13 -13 -12 -12
-8 -7 -4 -6 -7 -7 -8 -8 -9 -9 -9 -9 -9 -10 -11 -11 -12 -12 -12 -14 -22 -25 -23 -27 -28 -26 -24 -19 -13 -15 -17 -16 -14 -11 -10 -9 -9 -10 -11 -12 -12 -12 -12 -12
-5 -7 -6 -6 -7 -9 -9 -9 -9 -8 -8 -7 -7 -8 -8 -10 -11 -12 -12 -13 -15 -24 -26 -27 -28 -27 -25 -23 -16 -11 -15 -17 -16 -14 -12 -10 -9 -8 -9 -9 -10 -11 -11 -10
-5 -6 -6 -5 -8 -8 -7 -6 -6 -6 -6 -6 -7 -8 -9 -8 -9 -10 -12 -12 -13 -17 -25 -27 -27 -27 -25 -24 -22 -12 -9 -14 -17 -16 -14 -12 -11 -9 -7 -7 -8 -8 -8 -8

GFSCGP_850_dewp_282.txt.gz
Dewpoint
-6 -6 -5 -8 -10 -11 -10 -10 -9 -8 -7 -7 -7 -7 -8 -10 -13 -13 -14 -16 -16 -13 -11 -12 -13 -12 -8 -13 -12 -10 -9 -10 -10 -9 -10 -9 -7 -7 -7 -9 -8 -9 -7 -6
-6 -5 -10 -12 -11 -11 -10 -10 -9 -8 -7 -8 -8 -7 -9 -9 -10 -12 -13 -15 -16 -15 -12 -10 -9 -9 -8 -12 -12 -10 -9 -10 -11 -14 -16 -15 -11 -10 -10 -8 -5 -7 -8 -6
-5 -7 -11 -10 -10 -10 -10 -10 -11 -12 -10 -9 -8 -6 -7 -10 -9 -11 -12 -14 -15 -15 -13 -11 -9 -7 -8 -9 -11 -10 -9 -11 -12 -15 -15 -12 -8 -5 -5 -6 -5 -6 -7 -6
-7 -11 -10 -9 -10 -11 -9 -12 -11 -9 -7 -7 -8 -8 -7 -10 -10 -11 -11 -14 -15 -16 -14 -11 -9 -8 -7 -8 -12 -10 -9 -11 -13 -15 -15 -12 -8 -5 -7 -8 -8 -6 -7 -5
-7 -10 -9 -9 -10 -13 -10 -10 -8 -7 -7 -5 -6 -6 -8 -10 -9 -10 -12 -12 -14 -14 -13 -11 -10 -7 -8 -12 -12 -9 -9 -12 -13 -15 -15 -12 -9 -6 -8 -6 -7 -6 -7 -6
-9 -12 -13 -12 -13 -14 -9 -8 -6 -5 -4 -5 -5 -7 -9 -9 -11 -12 -12 -13 -13 -14 -13 -11 -9 -8 -8 -12 -11 -10 -9 -11 -13 -15 -14 -12 -11 -10 -9 -8 -5 -6 -4 -4
-8 -9 -12 -14 -11 -11 -10 -8 -5 -4 -4 -7 -6 -7 -10 -10 -11 -12 -12 -12 -13 -14 -14 -11 -9 -10 -9 -12 -11 -11 -10 -12 -14 -15 -14 -13 -12 -11 -10 -9 -7 -7 -6 -6
-7 -7 -9 -15 -13 -11 -10 -8 -6 -5 -8 -8 -8 -5 -7 -11 -12 -11 -13 -13 -13 -14 -14 -11 -10 -9 -10 -14 -12 -11 -11 -13 -15 -15 -14 -13 -12 -11 -10 -9 -9 -9 -8 -7
-7 -5 -13 -15 -16 -13 -9 -7 -9 -7 -7 -6 -8 -9 -10 -12 -14 -14 -14 -13 -12 -13 -13 -11 -11 -12 -9 -12 -12 -11 -10 -12 -14 -15 -14 -13 -12 -11 -10 -9 -8 -8 -8 -8
-7 -7 -10 -12 -13 -12 -11 -11 -7 -7 3 -4 -11 -9 -11 -9 -10 -12 -14 -13 -12 -13 -13 -12 -10 -12 -12 -13 -12 -12 -10 -13 -15 -15 -14 -13 -11 -11 -10 -10 -9 -9 -8 -8
-7 -7 -7 -9 -8 -8 -10 -10 -10 -7 -7 -3 -7 -11 -12 -10 -10 -11 -14 -14 -13 -13 -14 -12 -11 -14 -12 -14 -13 -12 -10 -13 -15 -15 -14 -13 -12 -11 -11 -11 -10 -10 -10 -10
-9 -8 -8 -8 -11 -12 -12 -11 -10 -3 -1 -6 -1 -2 -12 -13 -12 -11 -13 -15 -14 -14 -14 -13 -13 -13 -12 -15 -14 -13 -11 -13 -16 -15 -14 -13 -13 -13 -13 -12 -13 -13 -13 -12
-7 -6 -7 -7 -8 -9 -8 -9 -10 -6 -5 -1 2 -5 -12 -13 -14 -13 -12 -13 -14 -15 -14 -13 -11 -13 -11 -14 -14 -13 -11 -13 -15 -16 -14 -14 -14 -14 -13 -14 -14 -15 -14 -14
-8 -6 -7 -5 -7 -5 -6 -7 -9 -9 -1 -1 -5 -9 -9 -9 -11 -13 -13 -12 -14 -15 -15 -14 -12 -12 -13 -13 -15 -14 -11 -13 -15 -16 -15 -14 -14 -14 -14 -15 -16 -16 -15 -15
-7 -5 -7 -8 -8 -7 -8 -7 -7 -4 -8 -4 -7 -6 -8 -10 -9 -11 -13 -12 -13 -14 -14 -14 -14 -15 -14 -13 -15 -15 -12 -12 -15 -16 -16 -15 -15 -14 -14 -16 -17 -16 -16 -16
-6 -4 -7 -6 -7 -7 -6 -6 -7 -7 -7 -8 -8 -7 -10 -10 -11 -11 -12 -13 -13 -14 -15 -16 -18 -19 -17 -15 -17 -16 -13 -11 -13 -14 -16 -15 -15 -13 -14 -17 -17 -17 -17 -17
-5 -4 -4 -3 -7 -6 -4 -5 -5 -6 -8 -8 -6 -7 -9 -9 -10 -10 -11 -13 -13 -14 -14 -15 -19 -25 -21 -16 -18 -17 -14 -11 -13 -14 -14 -15 -15 -12 -13 -17 -17 -17 -17 -16
-5 -5 -1 -1 -5 -0 -5 -8 -7 -6 -7 -8 -7 -7 -8 -9 -10 -11 -11 -10 -12 -13 -14 -15 -16 -24 -25 -18 -17 -17 -15 -11 -11 -14 -14 -14 -14 -12 -12 -17 -17 -17 -16 -15
-6 -4 6 4 -2 -4 -6 -7 -6 -6 -7 -7 -7 -7 -8 -9 -11 -10 -12 -14 -14 -14 -15 -16 -17 -19 -27 -20 -17 -17 -16 -12 -11 -13 -14 -13 -13 -12 -12 -14 -16 -16 -16 -15
-5 -5 1 0 5 0 -5 -9 -9 -9 -5 -9 -8 -8 -8 -10 -7 -7 -12 -13 -13 -14 -15 -17 -18 -17 -24 -23 -17 -17 -17 -14 -11 -12 -14 -14 -13 -12 -12 -15 -16 -16 -15 -15
-3 -1 4 -1 3 -2 -5 -9 -9 -5 -3 -7 -8 -8 -8 -8 -9 -10 -14 -19 -19 -14 -14 -18 -19 -19 -22 -24 -18 -16 -17 -15 -12 -11 -11 -14 -15 -14 -15 -15 -15 -15 -15 -14
-1 4 2 0 4 0 -9 -9 -5 -4 -9 -10 -9 -10 -10 -10 -11 -11 -12 -12 -16 -21 -15 -17 -21 -20 -20 -24 -18 -17 -18 -17 -14 -11 -10 -11 -13 -14 -14 -14 -14 -14 -14 -13
-2 -2 3 0 -2 -5 -9 -8 -10 -11 -10 -8 -8 -7 -8 -9 -10 -11 -12 -12 -13 -23 -20 -17 -23 -22 -22 -24 -20 -16 -18 -18 -16 -13 -11 -10 -10 -12 -12 -13 -13 -13 -12 -12
-5 -6 -3 -3 -5 -6 -6 -8 -9 -9 -8 -7 -6 -6 -6 -7 -8 -10 -11 -12 -12 -14 -23 -21 -21 -25 -24 -25 -23 -16 -14 -17 -17 -15 -13 -10 -9 -9 -10 -10 -11 -11 -11 -11
-4 -6 -5 -5 -6 -7 -6 -7 -7 -7 -5 -5 -6 -7 -8 -7 -6 -8 -9 -10 -12 -12 -15 -22 -23 -25 -28 -27 -25 -21 -14 -13 -16 -17 -15 -13 -11 -9 -9 -8 -8 -9 -9 -9
-5 -5 -4 -3 -6 -7 -5 -6 -5 -5 -5 -5 -6 -4 -3 -2 -2 -2 -4 -8 -10 -12 -13 -16 -23 -26 -28 -28 -26 -24 -20 -13 -12 -16 -17 -15 -13 -12 -10 -9 -8 -7 -7 -8

GFSCGP_850_dewp_285.txt.gz
Dewpoint
-6 -5 -5 -6 -8 -10 -11 -11 -10 -9 -7 -7 -7 -7 -8 -9 -11 -11 -12 -14 -14 -13 -12 -11 -9 -8 -6 -7 -7 -6 -4 -4 -4 -5 -6 -6 -5 -5 -5 -5 -4 -5 -5 -4
-6 -5 -8 -11 -10 -10 -10 -10 -9 -8 -8 -9 -9 -8 -9 -9 -9 -11 -11 -13 -14 -14 -13 -11 -9 -8 -6 -8 -7 -6 -4 -4 -5 -7 -9 -9 -6 -6 -5 -4 -4 -4 -5 -4
-6 -6 -10 -9 -9 -9 -10 -9 -11 -11 -11 -9 -8 -5 -7 -9 -8 -9 -10 -11 -13 -14 -13 -12 -10 -9 -6 -7 -7 -6 -4 -6 -4 -12 -6 -5 -4 -4 -4 -4 -3 -3 -4 -3
-7 -9 -9 -8 -8 -10 -7 -12 -11 -9 -7 -6 -8 -6 -6 -8 -8 -9 -10 -11 -12 -13 -13 -13 -11 -10 -6 -7 -7 -11 -6 -8 -7 -14 -10 -6 -4 -3 -3 -3 -4 -3 -4 -3
-6 -9 -9 -8 -8 -11 -8 -10 -9 -7 -7 -6 -5 -5 -7 -9 -9 -10 -11 -11 -11 -12 -13 -13 -11 -10 -6 -7 -8 -8 -8 -11 -13 -15 -14 -11 -4 -3 -3 -3 -3 -3 -3 -3
-8 -11 -11 -10 -12 -13 -10 -8 -6 -5 -5 -1 -5 -8 -6 -9 -11 -11 -12 -12 -11 -12 -13 -12 -10 -10 -6 -7 -11 -12 -8 -8 -12 -15 -13 -11 -10 -6 -6 -4 -3 -3 -3 -3
-7 -8 -12 -13 -10 -10 -9 -7 -2 1 1 -4 -7 -7 -10 -11 -11 -12 -13 -13 -12 -12 -13 -12 -10 -9 -6 -6 -10 -11 -9 -8 -9 -14 -13 -11 -11 -10 -7 -4 -3 -4 -3 -3
-7 -4 -8 -13 -11 -10 -9 -7 -5 -1 -4 -6 -7 -4 -7 -11 -11 -11 -12 -13 -13 -12 -13 -12 -9 -8 -6 -6 -7 -7 -6 -6 -9 -9 -11 -12 -11 -10 -8 -5 -9 -8 -4 -4
-8 -5 -12 -14 -15 -13 -7 -5 -8 -6 -6 -6 -6 -8 -8 -12 -12 -12 -11 -12 -12 -12 -12 -12 -10 -8 -6 -6 -7 -8 -8 -6 -7 -10 -12 -13 -11 -10 -10 -11 -11 -8 -7 -5
-8 -6 -9 -11 -13 -12 -11 -11 -5 -4 4 -1 -9 -9 -10 -7 -10 -12 -12 -12 -11 -11 -12 -12 -10 -9 -7 -6 -6 -6 -7 -7 -10 -13 -14 -12 -12 -12 -12 -12 -11 -8 -7 -7
-8 -8 -6 -8 -8 -7 -9 -9 -10 -7 -6 -2 -4 -9 -12 -11 -10 -11 -12 -12 -12 -11 -12 -12 -11 -9 -7 -7 -7 -7 -10 -10 -11 -14 -14 -13 -13 -12 -12 -12 -10 -8 -9 -7
-8 -7 -7 -8 -10 -11 -11 -10 -10 -2 2 -6 -1 -1 -13 -13 -12 -11 -12 -13 -12 -11 -12 -13 -12 -10 -8 -7 -7 -8 -9 -8 -10 -11 -12 -12 -13 -13 -13 -10 -8 -11 -11 -11
-8 -7 -6 -5 -6 -8 -8 -9 -10 -6 -5 -1 2 -2 -12 -12 -12 -12 -11 -12 -13 -12 -12 -13 -12 -11 -9 -7 -7 -7 -7 -7 -9 -12 -14 -14 -13 -12 -12 -12 -13 -15 -14 -14
-7 -6 -5 -3 -4 -5 -4 -6 -9 -8 -2 -0 -2 -6 -8 -8 -9 -12 -12 -11 -12 -13 -13 -13 -13 -12 -10 -8 -8 -8 -8 -7 -9 -13 -15 -13 -13 -13 -13 -14 -15 -16 -16 -16
-6 -4 -5 -6 -7 -8 -8 -7 -6 -4 -8 -5 -6 -5 -7 -8 -8 -10 -9 -11 -11 -12 -13 -13 -13 -12 -11 -9 -8 -8 -10 -10 -10 -14 -15 -15 -14 -14 -14 -15 -17 -17 -17 -17
-6 -3 -5 -4 -6 -7 -6 -7 -7 -6 -7 -7 -7 -6 -8 -9 -10 -11 -11 -11 -11 -11 -12 -13 -13 -12 -11 -10 -8 -8 -11 -13 -11 -13 -15 -15 -15 -15 -14 -15 -17 -17 -17 -17
-4 -3 -3 -2 -6 -6 -3 -4 -5 -6 -7 -7 -5 -7 -9 -7 -8 -9 -9 -10 -11 -11 -11 -12 -13 -14 -13 -11 -9 -10 -13 -13 -12 -12 -15 -15 -16 -16 -14 -14 -18 -18 -17 -17
-3 -3 -1 1 -2 1 -5 -8 -7 -6 -6 -7 -6 -6 -7 -8 -8 -8 -9 -10 -9 -11 -11 -12 -12 -13 -15 -12 -11 -12 -14 -15 -13 -12 -14 -15 -15 -16 -14 -12 -15 -17 -17 -16
-6 -3 8 3 0 -3 -4 -6 -6 -6 -6 -8 -7 -7 -8 -8 -8 -8 -9 -10 -10 -9 -10 -11 -12 -13 -14 -15 -15 -14 -15 -16 -14 -12 -12 -14 -14 -14 -13 -12 -13 -15 -16 -16
-6 -5 2 2 6 1 -4 -8 -8 -8 -3 -7 -8 -8 -8 -8 -5 -4 -11 -15 -15 -11 -10 -11 -12 -12 -12 -14 -17 -15 -16 -17 -16 -13 -12 -12 -14 -14 -12 -12 -12 -14 -16 -16
-2 -0 5 2 5 -1 -5 -8 -8 -3 -2 -7 -8 -7 -7 -7 -8 -8 -10 -11 -12 -15 -13 -12 -13 -13 -14 -13 -18 -20 -16 -18 -18 -15 -12 -11 -13 -15 -14 -14 -14 -14 -15 -15
1 5 4 2 6 3 -7 -8 -5 -5 -5 -6 -7 -6 -6 -6 -6 -7 -8 -10 -11 -12 -18 -15 -13 -15 -14 -14 -16 -22 -19 -17 -17 -16 -14 -11 -11 -12 -14 -14 -14 -13 -13 -13
-0 -1 3 2 0 -4 -7 -7 -7 -10 -8 -6 -6 -5 -5 -5 -7 -7 -7 -9 -11 -12 -12 -19 -15 -15 -16 -16 -17 -21 -22 -16 -16 -17 -16 -13 -11 -10 -11 -12 -13 -12 -11 -11
-3 -4 -1 -1 -3 -3 -4 -5 -7 -7 -7 -7 -5 -5 -6 -7 -5 -3 -3 -3 -8 -10 -12 -13 -19 -17 -18 -20 -19 -21 -22 -18 -15 -16 -17 -15 -12 -11 -9 -9 -10 -10 -10 -9
-3 -4 -3 -3 -4 -5 -5 -5 -6 -6 -5 -5 -5 -5 -7 -3 -2 -2 -1 -2 -2 -4 -8 -11 -13 -18 -19 -21 -23 -21 -22 -20 -15 -14 -16 -16 -14 -12 -10 -9 -9 -8 -8 -8
-3 -3 -2 -3 -5 -5 -5 -5 -5 -4 -3 -3 -3 -4 -4 -2 -1 -0 -0 -1 -1 -3 -6 -8 -11 -13 -17 -21 -24 -26 -24 -22 -19 -14 -13 -15 -15 -14 -12 -11 -9 -9 -9 -7